EJA906 KAGS-KTCL

Flight info

Callsign EJA906
Flight time N/A
Altitude 43000
Route JUNPR6 NOKIE LGC
Aircraft C750/M-SBDE3FGHRWXY/S

Departure

Time 2026-05-07 02:28
Airport Augusta Regional At Bush Field (KAGS)

Arrival

Time N/A
Airport Tuscaloosa National Airport (KTCL)
Time Latitude Longitude Altitude Speed Heading
2026-05-07 02:11 33.37042 -81.97237 145 ft 0 kts 167°
2026-05-07 02:21 33.37042 -81.97236 145 ft 0 kts 167°
2026-05-07 02:21 33.37033 -81.97231 145 ft 3 kts 123°
2026-05-07 02:22 33.37040 -81.97181 144 ft 6 kts 66°
2026-05-07 02:22 33.37056 -81.97125 144 ft 7 kts 76°
2026-05-07 02:22 33.37071 -81.97060 144 ft 9 kts 74°
2026-05-07 02:22 33.37088 -81.96973 144 ft 11 kts 75°
2026-05-07 02:23 33.37165 -81.96951 144 ft 14 kts 350°
2026-05-07 02:23 33.37279 -81.96980 144 ft 19 kts 347°
2026-05-07 02:23 33.37420 -81.97015 145 ft 17 kts 348°
2026-05-07 02:23 33.37543 -81.97044 146 ft 17 kts 349°
2026-05-07 02:24 33.37662 -81.97075 146 ft 17 kts 347°
2026-05-07 02:24 33.37780 -81.97105 146 ft 17 kts 347°
2026-05-07 02:24 33.37901 -81.97134 146 ft 17 kts 350°
2026-05-07 02:24 33.38020 -81.97163 146 ft 17 kts 348°
2026-05-07 02:25 33.38098 -81.97183 146 ft 5 kts 349°
2026-05-07 02:25 33.38153 -81.97195 146 ft 11 kts 351°
2026-05-07 02:25 33.38203 -81.97183 145 ft 5 kts 62°
2026-05-07 02:25 33.38204 -81.97182 145 ft 0 kts 64°
2026-05-07 02:26 33.38210 -81.97163 145 ft 8 kts 74°
2026-05-07 02:27 33.38196 -81.97075 145 ft 13 kts 155°
2026-05-07 02:27 33.38170 -81.97066 145 ft 0 kts 168°
2026-05-07 02:27 33.38069 -81.97040 146 ft 50 kts 166°
2026-05-07 02:27 33.37357 -81.96865 145 ft 154 kts 169°
2026-05-07 02:28 33.36149 -81.96573 931 ft 190 kts 171°
2026-05-07 02:28 33.35033 -81.96226 2690 ft 174 kts 170°
2026-05-07 02:28 33.33899 -81.95820 3939 ft 183 kts 170°
2026-05-07 02:28 33.32735 -81.95363 5284 ft 184 kts 172°
2026-05-07 02:29 33.31530 -81.94968 6474 ft 189 kts 172°
2026-05-07 02:29 33.30280 -81.94570 7641 ft 194 kts 173°
2026-05-07 02:29 33.28969 -81.94151 8719 ft 197 kts 185°
2026-05-07 02:29 33.27684 -81.94554 9286 ft 213 kts 219°
2026-05-07 02:30 33.26406 -81.95821 9401 ft 268 kts 223°
2026-05-07 02:30 33.24832 -81.97392 9685 ft 312 kts 224°
2026-05-07 02:30 33.23160 -81.99116 10527 ft 328 kts 224°
2026-05-07 02:30 33.21436 -82.00912 11738 ft 332 kts 225°
2026-05-07 02:31 33.19702 -82.02718 12935 ft 334 kts 226°
2026-05-07 02:31 33.17962 -82.04535 14016 ft 339 kts 225°
2026-05-07 02:31 33.16194 -82.06378 15032 ft 344 kts 226°
2026-05-07 02:31 33.14368 -82.08283 15979 ft 350 kts 226°
2026-05-07 02:32 33.12546 -82.10191 16891 ft 355 kts 226°
2026-05-07 02:32 33.10683 -82.12125 17700 ft 362 kts 226°
2026-05-07 02:32 33.08789 -82.14098 18662 ft 363 kts 226°
2026-05-07 02:32 33.06866 -82.16102 19441 ft 370 kts 226°
2026-05-07 02:33 33.04949 -82.18097 20284 ft 372 kts 226°
2026-05-07 02:33 33.02964 -82.20160 20990 ft 378 kts 226°
2026-05-07 02:33 33.00993 -82.22203 21735 ft 382 kts 226°
2026-05-07 02:33 32.99018 -82.24258 22518 ft 383 kts 226°
2026-05-07 02:34 32.96979 -82.26369 23194 ft 387 kts 226°
2026-05-07 02:34 32.94946 -82.28483 23844 ft 392 kts 226°
2026-05-07 02:34 32.92863 -82.30631 24391 ft 398 kts 227°
2026-05-07 02:34 32.90774 -82.32790 24960 ft 403 kts 226°
2026-05-07 02:35 32.88625 -82.35016 25600 ft 406 kts 226°
2026-05-07 02:35 32.86519 -82.37194 26225 ft 409 kts 227°
2026-05-07 02:35 32.84307 -82.39477 26643 ft 416 kts 227°
2026-05-07 02:35 32.82315 -82.41938 27087 ft 412 kts 241°
2026-05-07 02:36 32.81164 -82.44996 27711 ft 405 kts 255°
2026-05-07 02:36 32.80783 -82.48250 28154 ft 406 kts 270°
2026-05-07 02:36 32.80899 -82.51612 28663 ft 408 kts 275°
2026-05-07 02:36 32.81141 -82.54962 29115 ft 412 kts 276°
2026-05-07 02:37 32.81453 -82.58370 29620 ft 415 kts 277°
2026-05-07 02:37 32.81791 -82.61799 30121 ft 417 kts 277°
2026-05-07 02:37 32.82133 -82.65202 30492 ft 421 kts 276°
2026-05-07 02:37 32.82487 -82.68694 31036 ft 422 kts 276°
2026-05-07 02:38 32.82830 -82.72148 31474 ft 425 kts 276°
2026-05-07 02:38 32.83177 -82.75658 31819 ft 429 kts 276°
2026-05-07 02:38 32.83533 -82.79209 32229 ft 432 kts 276°
2026-05-07 02:38 32.83876 -82.82701 32707 ft 433 kts 276°
2026-05-07 02:39 32.84238 -82.86269 33022 ft 437 kts 276°
2026-05-07 02:39 32.84587 -82.89839 33574 ft 437 kts 276°
2026-05-07 02:39 32.84934 -82.93429 34242 ft 434 kts 276°
2026-05-07 02:39 32.85287 -82.96963 35067 ft 428 kts 276°
2026-05-07 02:40 32.85627 -83.00462 35974 ft 420 kts 277°
2026-05-07 02:40 32.85961 -83.03874 36579 ft 418 kts 276°
2026-05-07 02:40 32.86298 -83.07295 37216 ft 415 kts 277°
2026-05-07 02:40 32.86625 -83.10697 37726 ft 414 kts 276°
2026-05-07 02:41 32.86956 -83.14100 38215 ft 412 kts 276°
2026-05-07 02:41 32.87281 -83.17460 38705 ft 411 kts 277°
2026-05-07 02:41 32.87605 -83.20869 39222 ft 409 kts 277°
2026-05-07 02:41 32.87933 -83.24219 39826 ft 406 kts 277°
2026-05-07 02:42 32.88247 -83.27535 40538 ft 401 kts 277°
2026-05-07 02:42 32.88550 -83.30772 41230 ft 396 kts 277°
2026-05-07 02:42 32.88867 -83.34013 41768 ft 394 kts 277°
2026-05-07 02:42 32.89165 -83.37221 42359 ft 390 kts 277°
2026-05-07 02:43 32.89477 -83.40424 42995 ft 386 kts 277°
2026-05-07 02:43 32.89776 -83.43618 42981 ft 391 kts 277°
2026-05-07 02:43 32.90379 -83.50098 42998 ft 400 kts 277°
2026-05-07 02:44 32.91002 -83.56768 43002 ft 409 kts 277°
2026-05-07 02:44 32.91644 -83.63560 43006 ft 416 kts 277°
2026-05-07 02:45 32.92277 -83.70462 43016 ft 420 kts 277°
2026-05-07 02:45 32.92915 -83.77374 43013 ft 422 kts 277°
2026-05-07 02:46 32.93545 -83.84348 43017 ft 423 kts 277°
2026-05-07 02:46 32.94175 -83.91289 42987 ft 424 kts 277°
2026-05-07 02:47 32.94808 -83.98265 43025 ft 424 kts 277°
2026-05-07 02:47 32.95430 -84.05234 43002 ft 424 kts 277°
2026-05-07 02:48 32.96051 -84.12179 43014 ft 423 kts 277°
2026-05-07 02:48 32.96667 -84.19151 43001 ft 423 kts 277°
2026-05-07 02:49 32.97280 -84.26154 43020 ft 424 kts 277°
2026-05-07 02:49 32.97894 -84.33143 43014 ft 425 kts 277°
2026-05-07 02:50 32.98500 -84.40157 43013 ft 427 kts 277°
2026-05-07 02:50 32.99107 -84.47220 42984 ft 427 kts 277°
2026-05-07 02:51 32.99707 -84.54229 42991 ft 427 kts 276°
2026-05-07 02:51 33.00306 -84.61253 42969 ft 429 kts 276°
2026-05-07 02:52 33.00905 -84.68323 43004 ft 430 kts 276°
2026-05-07 02:52 33.01189 -84.71789 42974 ft 406 kts 276°
2026-05-07 02:52 33.01466 -84.75031 42909 ft 381 kts 276°
2026-05-07 02:53 33.01723 -84.78117 41755 ft 378 kts 276°
2026-05-07 02:53 33.01978 -84.81248 39507 ft 389 kts 277°
2026-05-07 02:53 33.02248 -84.84463 37291 ft 400 kts 277°
2026-05-07 02:53 33.02523 -84.87713 35051 ft 404 kts 276°
2026-05-07 02:54 33.02799 -84.90955 32687 ft 405 kts 276°
2026-05-07 02:54 33.03051 -84.94251 30378 ft 405 kts 276°
2026-05-07 02:54 33.03319 -84.97488 27960 ft 404 kts 277°
2026-05-07 02:54 33.03590 -85.00695 25269 ft 405 kts 276°
2026-05-07 02:55 33.03917 -85.03861 24153 ft 364 kts 281°
2026-05-07 02:55 33.04442 -85.06667 24043 ft 338 kts 279°
2026-05-07 02:55 33.04881 -85.09372 24029 ft 331 kts 279°
2026-05-07 02:55 33.05338 -85.12031 23999 ft 325 kts 280°
2026-05-07 02:56 33.05789 -85.14686 23996 ft 328 kts 280°
2026-05-07 02:56 33.06243 -85.17364 24004 ft 331 kts 280°
2026-05-07 02:56 33.06696 -85.20066 24002 ft 334 kts 280°
2026-05-07 02:56 33.07169 -85.22777 24029 ft 338 kts 279°
2026-05-07 02:57 33.07637 -85.25551 24025 ft 340 kts 279°
2026-05-07 02:57 33.08101 -85.28226 23995 ft 316 kts 280°
2026-05-07 02:57 33.08512 -85.30670 23972 ft 289 kts 279°
2026-05-07 02:57 33.08920 -85.33038 24008 ft 306 kts 279°
2026-05-07 02:58 33.09345 -85.35611 24034 ft 320 kts 280°
2026-05-07 02:58 33.09800 -85.38246 24019 ft 329 kts 279°
2026-05-07 02:58 33.10251 -85.40958 24013 ft 336 kts 279°
2026-05-07 02:58 33.10717 -85.43707 24011 ft 337 kts 279°
2026-05-07 02:59 33.11190 -85.46484 24007 ft 336 kts 281°
2026-05-07 02:59 33.11643 -85.49171 23998 ft 335 kts 279°
2026-05-07 02:59 33.12098 -85.51907 23995 ft 334 kts 279°
2026-05-07 02:59 33.12561 -85.54603 24006 ft 333 kts 279°
2026-05-07 03:00 33.13003 -85.57307 24002 ft 333 kts 279°
2026-05-07 03:00 33.13464 -85.60020 24003 ft 332 kts 279°
2026-05-07 03:00 33.13911 -85.62708 24002 ft 332 kts 279°
2026-05-07 03:00 33.14359 -85.65401 24005 ft 331 kts 278°
2026-05-07 03:01 33.14811 -85.68069 24005 ft 329 kts 278°
2026-05-07 03:01 33.15248 -85.70691 23457 ft 319 kts 278°
2026-05-07 03:01 33.15673 -85.73275 22391 ft 321 kts 278°
2026-05-07 03:01 33.16103 -85.75867 21306 ft 323 kts 278°
2026-05-07 03:02 33.16530 -85.78438 20412 ft 318 kts 278°
2026-05-07 03:02 33.16955 -85.80994 19447 ft 316 kts 277°
2026-05-07 03:02 33.17380 -85.83543 18542 ft 313 kts 277°
2026-05-07 03:02 33.17786 -85.86042 17650 ft 309 kts 278°
2026-05-07 03:03 33.18196 -85.88509 16816 ft 304 kts 278°
2026-05-07 03:03 33.18595 -85.90936 15990 ft 299 kts 278°
2026-05-07 03:03 33.18988 -85.93340 15128 ft 296 kts 278°
2026-05-07 03:03 33.19384 -85.95734 14312 ft 292 kts 278°
2026-05-07 03:04 33.19768 -85.98071 13400 ft 290 kts 278°
2026-05-07 03:04 33.20151 -86.00406 12565 ft 287 kts 278°
2026-05-07 03:04 33.20528 -86.02724 11727 ft 284 kts 278°
2026-05-07 03:04 33.20903 -86.04998 10869 ft 283 kts 277°
2026-05-07 03:05 33.21283 -86.07362 10108 ft 305 kts 278°
2026-05-07 03:05 33.21676 -86.09773 9995 ft 289 kts 279°
2026-05-07 03:05 33.22060 -86.12060 9999 ft 271 kts 278°
2026-05-07 03:05 33.22418 -86.14249 10001 ft 267 kts 277°
2026-05-07 03:06 33.22766 -86.16441 10011 ft 271 kts 277°
2026-05-07 03:06 33.23127 -86.18604 10009 ft 266 kts 277°
2026-05-07 03:06 33.23482 -86.20861 10028 ft 285 kts 277°
2026-05-07 03:06 33.23857 -86.23197 10006 ft 280 kts 278°
2026-05-07 03:07 33.24227 -86.25428 10012 ft 275 kts 278°
2026-05-07 03:07 33.24587 -86.27667 9986 ft 275 kts 278°
2026-05-07 03:07 33.24960 -86.29975 10028 ft 294 kts 277°
2026-05-07 03:07 33.25356 -86.32435 10023 ft 303 kts 277°
2026-05-07 03:08 33.25741 -86.34836 9995 ft 292 kts 277°
2026-05-07 03:08 33.26126 -86.37201 10003 ft 287 kts 278°
2026-05-07 03:08 33.26495 -86.39532 10011 ft 288 kts 278°
2026-05-07 03:08 33.26865 -86.41824 10004 ft 274 kts 278°
2026-05-07 03:09 33.27216 -86.43981 9972 ft 259 kts 277°
2026-05-07 03:09 33.27555 -86.46104 9554 ft 261 kts 277°
2026-05-07 03:09 33.27890 -86.48228 9120 ft 261 kts 277°
2026-05-07 03:09 33.28232 -86.50346 8596 ft 259 kts 277°
2026-05-07 03:10 33.28562 -86.52426 8036 ft 258 kts 278°
2026-05-07 03:10 33.28894 -86.54524 7479 ft 257 kts 277°
2026-05-07 03:10 33.29224 -86.56604 6922 ft 256 kts 278°
2026-05-07 03:10 33.29557 -86.58694 6377 ft 253 kts 277°
2026-05-07 03:11 33.29881 -86.60716 6052 ft 240 kts 278°
2026-05-07 03:11 33.30177 -86.62633 5502 ft 237 kts 278°
2026-05-07 03:11 33.30481 -86.64551 4905 ft 237 kts 279°
2026-05-07 03:11 33.30786 -86.66470 4354 ft 235 kts 279°
2026-05-07 03:12 33.31080 -86.68375 3778 ft 235 kts 280°
2026-05-07 03:12 33.31384 -86.70293 3186 ft 235 kts 280°
2026-05-07 03:12 33.31680 -86.72177 2989 ft 229 kts 281°
2026-05-07 03:12 33.31989 -86.74120 2991 ft 243 kts 281°
2026-05-07 03:13 33.32306 -86.76110 2984 ft 248 kts 282°
2026-05-07 03:13 33.32630 -86.78134 2975 ft 247 kts 281°
2026-05-07 03:13 33.32949 -86.80137 2972 ft 245 kts 281°
2026-05-07 03:13 33.33261 -86.82137 2966 ft 243 kts 281°
2026-05-07 03:14 33.33562 -86.84101 2974 ft 241 kts 281°
2026-05-07 03:14 33.33875 -86.86069 2980 ft 242 kts 281°
2026-05-07 03:14 33.34501 -86.90080 2976 ft 246 kts 281°
2026-05-07 03:15 33.34812 -86.92088 2978 ft 246 kts 281°
2026-05-07 03:15 33.35128 -86.94076 2968 ft 244 kts 281°
2026-05-07 03:15 33.35434 -86.96060 2970 ft 242 kts 282°
2026-05-07 03:15 33.35747 -86.98064 2980 ft 245 kts 281°
2026-05-07 03:16 33.36062 -87.00073 2976 ft 249 kts 281°
2026-05-07 03:16 33.36378 -87.02127 2973 ft 252 kts 281°
2026-05-07 03:16 33.36692 -87.04171 2975 ft 254 kts 282°
2026-05-07 03:16 33.37016 -87.06254 2973 ft 255 kts 282°
2026-05-07 03:17 33.37341 -87.08340 2969 ft 256 kts 282°
2026-05-07 03:17 33.37662 -87.10438 2964 ft 256 kts 282°
2026-05-07 03:17 33.37983 -87.12519 2964 ft 256 kts 281°
2026-05-07 03:17 33.38315 -87.14625 2960 ft 256 kts 281°
2026-05-07 03:18 33.38625 -87.16715 2954 ft 257 kts 282°
2026-05-07 03:18 33.38948 -87.18815 2962 ft 257 kts 283°
2026-05-07 03:18 33.39282 -87.20933 2970 ft 257 kts 282°
2026-05-07 03:18 33.39604 -87.23025 2953 ft 258 kts 281°
2026-05-07 03:19 33.39925 -87.25147 2943 ft 258 kts 281°
2026-05-07 03:19 33.40247 -87.27241 2932 ft 258 kts 282°
2026-05-07 03:19 33.40564 -87.29350 2936 ft 257 kts 281°
2026-05-07 03:19 33.40614 -87.31498 2864 ft 258 kts 260°
2026-05-07 03:20 33.39995 -87.33440 2575 ft 245 kts 253°
2026-05-07 03:20 33.39451 -87.35339 2266 ft 246 kts 253°
2026-05-07 03:20 33.38882 -87.37293 2264 ft 249 kts 253°
2026-05-07 03:20 33.38318 -87.39241 2281 ft 251 kts 252°
2026-05-07 03:21 33.37716 -87.41268 2302 ft 264 kts 256°
2026-05-07 03:21 33.37106 -87.43394 2265 ft 276 kts 254°
2026-05-07 03:21 33.36424 -87.45560 2261 ft 272 kts 243°
2026-05-07 03:21 33.35219 -87.47171 2127 ft 254 kts 225°
2026-05-07 03:22 33.33913 -87.48543 1838 ft 242 kts 224°
2026-05-07 03:22 33.32682 -87.49825 1772 ft 224 kts 223°
2026-05-07 03:22 33.31547 -87.50993 1713 ft 207 kts 224°
2026-05-07 03:22 33.30470 -87.52118 1759 ft 220 kts 224°
2026-05-07 03:23 33.29236 -87.53400 1827 ft 247 kts 223°
2026-05-07 03:23 33.28021 -87.54687 1608 ft 215 kts 226°
2026-05-07 03:23 33.26991 -87.55751 1413 ft 179 kts 224°
2026-05-07 03:23 33.26133 -87.56639 1141 ft 151 kts 224°
2026-05-07 03:24 33.25390 -87.57410 928 ft 136 kts 222°
2026-05-07 03:24 33.24663 -87.58161 774 ft 137 kts 223°
2026-05-07 03:24 33.23943 -87.58901 603 ft 137 kts 224°
2026-05-07 03:24 33.23209 -87.59654 431 ft 138 kts 224°
2026-05-07 03:25 33.22485 -87.60404 345 ft 133 kts 222°
2026-05-07 03:25 33.21812 -87.61112 261 ft 130 kts 225°
2026-05-07 03:25 33.21131 -87.61872 578 ft 146 kts 226°
2026-05-07 03:25 33.20457 -87.62638 1550 ft 132 kts 230°
2026-05-07 03:26 33.19781 -87.63573 2090 ft 164 kts 233°
2026-05-07 03:26 33.18892 -87.64469 2472 ft 199 kts 208°
2026-05-07 03:26 33.17466 -87.65054 2512 ft 230 kts 207°
2026-05-07 03:26 33.16164 -87.66350 2509 ft 249 kts 225°
2026-05-07 03:27 33.15044 -87.67979 2425 ft 259 kts 248°
2026-05-07 03:27 33.14921 -87.70097 2431 ft 261 kts 283°
2026-05-07 03:27 33.15845 -87.71977 2237 ft 278 kts 320°
2026-05-07 03:27 33.17521 -87.72895 2391 ft 262 kts 352°
2026-05-07 03:28 33.19309 -87.73032 2421 ft 249 kts 356°
2026-05-07 03:28 33.21016 -87.73141 2457 ft 245 kts 356°
2026-05-07 03:28 33.22725 -87.73232 2458 ft 244 kts 357°
2026-05-07 03:28 33.24433 -87.73324 2460 ft 246 kts 356°
2026-05-07 03:29 33.26127 -87.73148 2467 ft 249 kts 19°
2026-05-07 03:29 33.27594 -87.71995 2507 ft 252 kts 37°
2026-05-07 03:29 33.28957 -87.70715 2454 ft 249 kts 34°
2026-05-07 03:29 33.30322 -87.69438 2461 ft 247 kts 37°
2026-05-07 03:30 33.31682 -87.68146 2485 ft 251 kts 37°
2026-05-07 03:30 33.33060 -87.66856 2456 ft 257 kts 36°
2026-05-07 03:30 33.34480 -87.65533 2487 ft 260 kts 35°
2026-05-07 03:30 33.35918 -87.64193 2465 ft 263 kts 36°
2026-05-07 03:31 33.37358 -87.62827 2459 ft 265 kts 37°
2026-05-07 03:31 33.38834 -87.61446 2480 ft 267 kts 35°
2026-05-07 03:31 33.40307 -87.60067 2471 ft 268 kts 36°
2026-05-07 03:31 33.41769 -87.58697 2486 ft 267 kts 33°
2026-05-07 03:32 33.43213 -87.57324 2426 ft 261 kts 35°
2026-05-07 03:32 33.44595 -87.56013 2432 ft 247 kts 37°
2026-05-07 03:32 33.45905 -87.54761 2438 ft 236 kts 36°
2026-05-07 03:32 33.47176 -87.53557 2449 ft 227 kts 36°
2026-05-07 03:33 33.48397 -87.52394 2460 ft 223 kts 34°
2026-05-07 03:33 33.49611 -87.51244 2470 ft 219 kts 37°
2026-05-07 03:33 33.50817 -87.50108 2477 ft 230 kts 35°
2026-05-07 03:33 33.52189 -87.48804 2516 ft 266 kts 36°
2026-05-07 03:34 33.53640 -87.47444 2474 ft 257 kts 36°
2026-05-07 03:34 33.55006 -87.46163 2460 ft 243 kts 36°
2026-05-07 03:34 33.56251 -87.44851 2448 ft 240 kts 51°
2026-05-07 03:34 33.56736 -87.42928 2466 ft 250 kts 90°
2026-05-07 03:35 33.56135 -87.40918 2476 ft 261 kts 115°
2026-05-07 03:35 33.55272 -87.39016 2449 ft 264 kts 115°
2026-05-07 03:35 33.54390 -87.37066 2454 ft 266 kts 117°
2026-05-07 03:35 33.53523 -87.35133 2473 ft 265 kts 115°
2026-05-07 03:36 33.52639 -87.33174 2452 ft 267 kts 116°
2026-05-07 03:36 33.51757 -87.31221 2471 ft 267 kts 116°
2026-05-07 03:36 33.50872 -87.29253 2460 ft 268 kts 118°
2026-05-07 03:36 33.49571 -87.27657 2452 ft 272 kts 152°
2026-05-07 03:37 33.47744 -87.27216 2473 ft 271 kts 185°
2026-05-07 03:37 33.45977 -87.27965 2487 ft 267 kts 213°
2026-05-07 03:37 33.44439 -87.29197 2453 ft 266 kts 224°
2026-05-07 03:37 33.43308 -87.30924 2466 ft 262 kts 241°
2026-05-07 03:38 33.42367 -87.32800 2464 ft 263 kts 243°
2026-05-07 03:38 33.41466 -87.34703 2473 ft 263 kts 243°
2026-05-07 03:38 33.40550 -87.36565 2459 ft 260 kts 242°
2026-05-07 03:38 33.39634 -87.38446 2466 ft 257 kts 241°
2026-05-07 03:39 33.38738 -87.40270 2452 ft 255 kts 244°
2026-05-07 03:39 33.37883 -87.42107 2486 ft 250 kts 249°
2026-05-07 03:39 33.37207 -87.44028 2459 ft 249 kts 248°
2026-05-07 03:39 33.36405 -87.45846 2415 ft 248 kts 247°
2026-05-07 03:40 33.35963 -87.47787 2403 ft 240 kts 279°
2026-05-07 03:40 33.36625 -87.49544 2445 ft 244 kts 317°
2026-05-07 03:40 33.38192 -87.50389 2939 ft 262 kts 351°
2026-05-07 03:40 33.40084 -87.50034 3011 ft 278 kts 23°
2026-05-07 03:41 33.41466 -87.48607 2959 ft 259 kts 56°
2026-05-07 03:41 33.42437 -87.46775 2927 ft 260 kts 54°
2026-05-07 03:41 33.43420 -87.44956 2977 ft 260 kts 55°
2026-05-07 03:41 33.44376 -87.43143 2951 ft 256 kts 54°
2026-05-07 03:42 33.45343 -87.41348 2966 ft 254 kts 53°
2026-05-07 03:42 33.46305 -87.39595 2979 ft 255 kts 53°
2026-05-07 03:42 33.47240 -87.37784 2979 ft 259 kts 63°
2026-05-07 03:42 33.47514 -87.35652 2958 ft 266 kts 98°
2026-05-07 03:43 33.46670 -87.33688 2967 ft 270 kts 135°